Flag for France Weather past 2 weeks in Paris, France

Now
55 °F

Overcast.


Feels Like: 54 °F
Forecast: 50 / 62 °F
Wind: 7 mph from Southwest

Location: Villacoublay

Current Time: Oct 23, 2014 at 2:16:44 PM

Latest Report: Oct 23, 2014 at 1:30 PM


Visibility: N/A

Pressure: 30.27 "Hg

Humidity: 63%

Dew point: 43 °F

Location of ParisLocation

Historic Weather in Paris — Graph

°F

Paris temperature yesterday

Maximum temperature yesterday: 55 °F (at 4:30 PM)
Minimum temperature yesterday: 43 °F (at 7:00 AM)
Average temperature yesterday: 49 °F

Past Weeks' High & Low Weather Summary

 TemperatureHumidityPressure
High73 °F (Oct 18, 2:00 PM)100% (Oct 10, 6:30 AM)30.33 "Hg (Oct 10, 6:30 AM)
Low43 °F (Oct 22, 7:00 AM)49% (Oct 14, 3:30 PM)29.56 "Hg (Oct 8, 5:30 PM)
Average57 °F82%29.91 "Hg
* Reported Oct 8 1:00 PM — Oct 23 1:00 PM, Paris, Weather by CustomWeather, © 2014

Note: Actual official high and low records may vary slightly from our data, if they occured in-between our weather recording intervals... More about our weather records

Advertising

Paris weather history for previous 24 hours

 ConditionsComfort  
Time TempWeatherWind HumidityBarometerVisibility
1:00 PM
Oct 23
55 °FOvercast.6 mph67%30.27 "HgN/A
12:30 PM54 °FOvercast.6 mph72%30.27 "HgN/A
12:00 PM54 °FOvercast.5 mph72%30.27 "HgN/A
11:30 AM52 °FOvercast.5 mph82%30.27 "HgN/A
11:00 AM52 °FMostly cloudy.6 mph77%30.27 "HgN/A
10:30 AM52 °FPartly sunny.5 mph77%30.27 "HgN/A
10:00 AM52 °FPartly sunny.6 mph77%30.27 "HgN/A
9:30 AM50 °FOvercast.5 mph82%30.27 "HgN/A
9:00 AM50 °FOvercast.6 mph82%30.27 "HgN/A
8:30 AM50 °FOvercast.7 mph82%30.27 "HgN/A
8:00 AM50 °FOvercast.7 mph82%30.27 "HgN/A
7:30 AM50 °FOvercast.8 mph82%30.27 "HgN/A
7:00 AM50 °FOvercast.6 mph88%30.27 "HgN/A
6:30 AM50 °FOvercast.5 mph88%30.27 "HgN/A
6:00 AM50 °FOvercast.6 mph88%30.27 "HgN/A
5:30 AM50 °FOvercast.6 mph88%30.27 "HgN/A
5:00 AM50 °FOvercast.5 mph88%30.27 "HgN/A
4:30 AM50 °FMostly cloudy.6 mph88%30.27 "HgN/A
4:00 AM50 °FOvercast.6 mph88%30.27 "HgN/A
3:30 AM50 °FMostly cloudy.5 mph88%30.30 "HgN/A
3:00 AM50 °FOvercast.6 mph88%30.30 "HgN/A
2:30 AM50 °FMostly cloudy.6 mph88%30.30 "HgN/A
2:00 AM50 °FMostly cloudy.5 mph88%30.30 "HgN/A
1:30 AM50 °FMostly cloudy.7 mph88%30.30 "HgN/A
1:00 AM50 °FMostly cloudy.6 mph82%30.30 "HgN/A
12:30 AM50 °FPartly cloudy.6 mph82%30.30 "HgN/A
12:00 AM50 °FMostly cloudy.6 mph82%30.30 "HgN/A
11:30 PM
Oct 22
50 °FOvercast.6 mph82%30.30 "HgN/A
11:00 PM50 °FOvercast.6 mph76%30.30 "HgN/A
10:30 PM48 °FPartly cloudy.5 mph82%30.30 "HgN/A
10:00 PM48 °FMostly cloudy.3 mph82%30.30 "HgN/A
9:30 PM48 °FPartly cloudy.3 mph82%30.30 "HgN/A
9:00 PM48 °FPartly cloudy.5 mph76%30.30 "HgN/A
8:30 PM48 °FPassing clouds.6 mph76%30.30 "HgN/A
8:00 PM48 °FPassing clouds.6 mph76%30.30 "HgN/A
7:30 PM50 °FScattered clouds.6 mph71%30.30 "HgN/A
7:00 PM52 °FPartly sunny.7 mph67%30.30 "HgN/A
6:30 PM54 °FPartly sunny.7 mph63%30.30 "HgN/A
6:00 PM54 °FScattered clouds.8 mph63%30.30 "HgN/A
5:30 PM54 °FPartly sunny.13 mph63%30.30 "HgN/A
5:00 PM54 °FBroken clouds.12 mph63%30.30 "HgN/A
4:30 PM55 °FMore clouds than sun.12 mph59%30.30 "HgN/A
4:00 PM54 °FMore clouds than sun.13 mph63%30.30 "HgN/A
3:30 PM54 °FPartly sunny.13 mph63%30.30 "HgN/A
3:00 PM54 °FMore clouds than sun.13 mph63%30.30 "HgN/A
2:30 PM54 °FCloudy.10 mph63%30.30 "HgN/A
2:00 PM54 °FOvercast.15 mph63%30.30 "HgN/A
Weather by CustomWeather, © 2014

See weather overviewHow to use our weather pages